Theta_e
315 315 316 315 315 315 315 315 315 317 318 318 318 317 317 318 318 317 316 315 315 315 315 316 318 321 322 323 323 323 325 326 328 326 324 325 325 324 326 325 322 321
313 314 315 315 315 315 316 317 318 319 318 318 318 317 317 317 316 316 315 315 315 315 315 316 318 322 324 324 324 324 324 324 324 324 324 325 323 323 326 326 323 322
312 313 314 314 314 314 316 317 318 318 317 316 316 316 317 317 316 316 315 315 315 315 316 317 320 323 325 325 325 325 324 322 321 321 322 323 322 324 327 325 323 324
311 312 312 312 312 313 313 314 314 314 315 315 315 316 317 317 317 316 315 315 315 315 316 318 321 325 327 327 327 326 325 324 322 322 322 321 322 325 326 324 324 324
311 311 311 311 311 311 311 311 311 312 314 315 316 317 318 318 318 318 317 316 315 316 316 318 321 325 327 328 328 328 328 327 325 325 325 324 324 325 325 323 323 323
312 312 311 311 311 311 310 310 311 312 313 315 317 319 320 320 320 319 318 317 316 317 318 319 321 324 327 329 328 328 328 327 326 325 324 323 323 324 323 321 321 322
312 312 312 312 312 311 311 311 311 311 313 315 318 322 323 323 323 322 321 320 318 318 320 322 323 324 327 328 328 327 326 326 326 325 325 324 324 324 323 323 322 322
311 311 311 311 311 312 311 312 312 312 313 315 318 321 323 324 324 323 322 321 321 321 322 324 325 326 327 327 328 327 326 326 326 327 326 325 325 325 324 323 322 321
311 311 311 311 311 311 311 311 311 312 313 314 315 317 319 320 320 321 321 320 321 321 322 324 325 326 327 327 327 327 327 326 327 328 326 324 324 324 324 322 321 320
312 312 312 312 312 311 311 311 311 311 311 312 312 313 314 314 316 318 319 319 320 321 322 323 324 325 326 326 327 328 327 325 326 327 325 323 323 324 323 323 322 320
312 312 312 312 312 312 312 312 311 311 310 310 310 311 311 312 314 316 317 319 321 321 322 323 324 324 325 325 326 326 325 326 327 327 326 324 324 322 321 322 321 320
311 311 311 312 312 312 312 312 312 311 311 310 310 310 310 311 313 315 317 319 320 322 322 323 324 324 324 324 323 323 324 327 326 325 326 325 322 320 320 320 320 319
311 311 311 310 311 312 312 313 312 312 311 310 310 310 310 310 311 314 316 318 320 321 323 323 323 324 325 325 324 324 326 326 324 323 325 323 321 319 319 319 319 319
311 311 311 311 310 311 312 312 313 312 312 311 310 310 310 310 310 312 315 318 320 321 322 323 324 324 324 325 326 326 326 324 322 324 324 322 321 320 320 320 320 319
311 311 311 311 310 311 311 312 313 312 312 311 310 310 310 310 310 310 313 316 319 320 322 322 323 323 322 322 324 324 323 321 321 324 324 322 321 320 319 319 318 318
311 311 311 311 311 311 311 312 313 313 312 312 311 310 309 309 309 309 310 313 316 318 319 321 322 322 321 321 323 323 322 321 322 323 323 322 321 319 318 318 318 317
311 311 311 311 311 311 311 312 313 313 313 312 311 311 309 309 309 308 308 311 314 315 315 317 321 321 320 320 321 322 322 322 323 322 322 322 320 318 317 317 317 316
311 311 311 311 310 310 311 312 313 313 313 312 312 311 310 308 308 308 309 310 312 314 314 315 317 319 320 321 322 322 322 322 322 321 321 321 320 318 317 317 316 314
311 311 311 310 310 310 311 312 312 313 312 312 312 311 310 309 308 310 312 312 312 314 316 316 316 318 320 321 322 322 322 321 320 320 320 320 318 317 317 316 314 312
311 311 311 311 310 310 310 311 311 312 312 312 312 311 310 309 309 311 314 315 316 316 318 319 319 319 320 320 321 321 321 320 319 319 318 317 316 316 316 315 312 310
311 310 310 310 310 310 310 310 311 311 312 312 312 312 311 310 310 310 313 315 317 317 317 318 319 319 320 320 320 321 320 319 318 318 317 316 316 315 316 315 311 309
311 311 310 310 310 310 310 310 310 310 311 311 312 312 312 311 310 309 311 313 315 316 316 316 316 317 317 318 319 319 319 318 318 318 316 315 315 315 315 314 310 307
310 310 310 310 310 310 310 310 310 310 310 311 311 311 311 311 310 309 310 311 313 315 316 315 315 315 317 318 318 318 318 318 317 316 315 314 314 314 315 314 310 307
310 310 310 310 310 310 310 310 310 310 310 310 311 311 311 311 310 310 310 310 310 311 313 314 315 316 316 316 316 315 315 315 314 313 313 312 311 312 313 313 311 307
310 310 310 311 310 310 310 310 310 310 310 310 310 310 310 310 310 310 309 309 309 310 310 311 313 313 313 313 313 313 313 312 311 311 310 310 310 311 312 312 311 309
311 310 310 310 310 310 310 310 310 309 309 309 310 310 310 310 310 310 309 309 309 310 310 310 311 311 311 311 311 311 311 310 309 308 308 309 310 310 310 311 311 310
Wind_Speed
38 39 40 40 40 40 39 39 39 39 39 38 38 39 38 37 36 35 35 34 33 33 33 33 32 32 32 33 33 35 37 39 40 39 39 39 37 36 35 34 32 32
37 39 40 40 40 40 40 40 39 40 40 39 38 38 37 36 34 34 34 32 31 32 32 32 32 32 33 33 33 34 37 39 40 39 40 39 38 37 37 35 32 33
35 36 38 38 39 39 38 38 38 38 38 38 38 38 37 36 35 33 32 31 29 30 31 31 32 33 33 33 33 34 36 37 37 37 38 38 38 38 38 34 31 32
31 32 33 35 36 36 36 36 36 36 36 37 38 38 38 36 35 34 33 31 28 27 29 30 31 33 34 34 34 34 35 35 35 35 37 37 38 39 37 33 32 33
25 26 27 29 30 31 32 33 34 34 35 36 37 37 37 36 35 35 33 32 29 26 25 27 30 33 34 34 34 34 34 34 35 37 39 39 39 38 35 33 33 34
19 20 21 22 24 26 28 30 31 32 34 35 34 35 35 35 35 35 34 32 30 26 24 25 28 30 33 33 33 34 34 34 35 37 39 40 39 37 36 37 36 34
16 17 18 19 21 23 26 27 29 30 32 33 33 33 33 34 34 35 34 33 30 26 24 25 27 29 31 32 33 34 34 34 34 34 36 37 36 37 38 38 34 32
15 16 17 19 20 22 24 26 27 29 29 31 31 31 30 31 33 34 34 32 29 27 26 26 27 28 30 32 34 34 34 34 34 34 35 35 35 36 36 34 32 33
14 15 16 17 19 20 22 23 25 26 27 29 30 30 30 31 31 32 32 30 28 28 27 27 27 28 30 32 33 34 34 35 36 37 35 33 35 37 34 32 34 35
14 14 15 16 17 18 19 20 21 22 24 26 28 29 30 30 29 29 29 28 26 26 26 26 28 29 30 31 33 34 34 35 38 39 34 29 32 36 33 33 35 33
14 15 15 16 17 17 18 19 19 20 22 23 24 26 27 27 27 26 26 24 24 24 25 25 27 29 30 31 33 34 35 37 39 38 32 26 29 33 32 34 35 34
14 15 16 17 18 19 19 19 20 21 21 22 23 23 24 25 25 25 24 23 23 23 24 25 26 28 29 30 32 33 34 34 33 34 33 29 28 28 29 33 36 34
14 15 16 18 19 20 20 20 21 21 21 22 22 22 23 23 24 24 23 23 23 22 23 24 25 27 28 28 30 31 31 29 31 35 36 30 24 24 27 33 35 32
15 16 17 17 18 19 20 20 20 20 20 21 21 22 22 23 23 23 22 22 22 22 23 23 24 26 27 28 29 28 28 30 34 37 35 28 23 24 26 31 34 34
17 18 18 18 18 19 19 19 19 19 19 19 20 21 21 22 22 23 23 23 22 22 23 23 23 24 26 27 27 26 28 30 31 36 36 28 23 23 25 29 33 36
20 20 20 19 19 18 18 18 18 18 18 18 19 19 20 21 21 22 22 22 22 23 24 24 23 23 25 26 26 26 29 30 29 35 38 29 21 23 27 29 32 34
21 21 20 20 19 18 17 17 17 17 17 17 17 18 18 18 19 20 20 20 21 22 23 23 23 23 23 24 24 24 28 30 30 34 36 29 23 26 28 29 31 32
20 20 20 20 19 18 17 16 16 16 16 16 16 16 15 15 15 15 16 17 19 19 20 20 21 22 22 23 23 23 25 28 29 32 33 29 26 28 28 30 31 31
19 19 19 19 18 18 17 17 17 17 16 15 15 14 14 13 12 12 13 14 16 16 17 18 19 21 22 23 23 22 23 25 27 30 30 27 27 29 29 30 30 30
19 19 19 18 17 17 17 17 17 17 16 16 15 14 13 13 12 12 13 14 14 15 16 17 18 19 20 22 22 22 22 22 24 27 27 26 27 28 29 30 29 30
19 19 19 18 17 17 17 17 17 17 17 16 16 15 14 14 13 13 14 14 15 15 16 17 17 17 17 18 19 19 20 21 23 25 25 26 27 29 30 30 29 28
20 20 19 19 19 18 18 18 18 17 17 16 16 15 15 15 14 14 14 15 15 16 16 17 17 16 15 15 16 16 18 21 25 26 26 28 29 30 31 30 28 28
20 20 20 20 20 19 19 18 18 18 18 17 16 15 14 15 15 15 15 15 16 17 17 17 17 17 17 17 17 17 19 23 26 27 28 30 31 31 31 30 29 29
18 19 20 20 20 19 19 19 18 18 18 18 17 15 15 15 15 15 15 15 15 16 17 17 17 17 17 17 17 18 20 23 25 28 31 32 33 32 31 31 31 31
18 19 20 21 20 20 20 20 19 19 17 17 16 15 15 15 14 14 14 13 13 14 15 16 16 17 18 18 18 20 23 26 29 32 34 33 33 33 32 31 32 33
19 20 21 21 21 21 20 20 19 18 17 16 15 14 14 14 13 13 13 13 13 14 15 16 17 18 19 20 22 24 27 30 32 33 32 31 32 32 32 32 33 35
Wind_Direction
252 252 252 252 252 253 254 255 256 256 256 257 260 262 264 265 264 264 265 265 263 259 253 249 246 245 245 243 241 239 237 237 240 243 244 246 248 249 249 247 244 247
255 253 253 253 253 253 252 252 252 253 254 256 259 262 264 265 265 265 265 265 264 259 252 247 244 243 243 243 241 240 239 238 240 240 240 243 246 249 250 246 244 250
254 253 253 254 255 256 256 254 253 255 257 258 261 262 262 262 263 264 265 265 263 258 251 245 242 241 241 242 242 242 242 242 242 239 238 241 245 247 249 247 247 249
256 257 256 257 258 260 260 260 259 259 259 260 262 262 260 259 260 261 263 264 263 258 251 244 239 240 242 243 243 242 243 245 244 243 242 242 245 247 247 245 245 244
259 259 259 260 260 261 261 260 259 258 256 257 258 259 258 258 257 258 259 260 261 258 251 242 238 238 242 244 244 243 243 243 242 241 242 243 244 246 246 245 245 246
265 265 265 265 264 264 263 262 259 256 254 253 254 254 255 256 256 256 256 257 258 255 248 240 237 237 240 243 243 243 243 243 242 241 241 243 244 246 249 249 248 248
272 272 271 269 268 266 265 264 261 257 253 251 250 251 253 255 256 256 257 258 256 251 243 239 236 235 237 239 241 244 245 246 247 246 245 244 245 249 249 244 245 247
270 268 266 265 264 264 263 262 261 258 255 252 251 250 251 254 257 259 262 261 256 252 245 240 237 235 235 238 240 243 245 246 247 246 245 245 247 248 246 244 250 253
267 268 268 267 266 266 266 264 262 260 258 257 256 255 254 255 257 261 265 265 260 257 251 244 238 236 236 238 240 242 244 246 246 244 245 251 249 245 245 251 254 251
275 276 275 275 273 272 272 271 269 266 263 261 259 259 259 259 258 259 262 265 264 260 254 245 240 238 237 238 241 243 245 248 247 243 245 255 251 245 249 254 252 253
282 284 282 282 280 278 277 275 273 272 268 265 263 262 261 261 260 258 259 261 262 259 253 246 243 241 239 239 241 241 244 249 249 244 245 252 251 250 255 255 253 259
285 287 287 288 287 285 284 281 279 277 274 272 269 267 264 261 257 255 253 253 254 255 253 248 245 243 242 243 242 241 244 249 249 247 247 249 250 253 256 253 253 255
290 291 292 292 291 290 289 287 286 284 281 278 274 271 268 263 258 254 250 249 248 248 250 250 248 247 248 250 249 246 247 250 253 250 245 243 250 261 261 255 253 254
292 293 294 293 292 291 289 289 290 288 286 283 278 274 270 266 262 256 250 247 246 244 245 247 248 249 250 251 253 253 249 252 256 249 241 243 254 260 260 256 255 260
291 292 294 294 293 292 290 289 288 287 285 282 278 276 271 268 264 259 251 246 244 244 245 245 247 249 248 248 252 253 250 253 257 249 242 244 250 254 260 260 261 264
291 292 293 292 292 291 288 286 284 283 282 280 278 276 272 269 265 261 256 249 245 245 244 244 246 247 248 251 254 254 250 253 260 253 243 240 249 262 270 270 269 268
289 289 290 290 290 288 285 283 282 281 281 281 280 279 276 273 269 265 260 252 250 251 248 246 247 246 249 255 258 258 253 253 261 256 243 241 256 268 272 273 273 269
285 285 286 286 287 288 286 285 285 284 284 282 281 281 279 276 272 269 264 256 254 256 256 254 250 247 252 259 262 264 261 258 261 254 242 245 260 269 272 274 271 264
282 280 280 281 283 286 288 288 288 286 285 284 281 280 279 274 268 264 264 264 261 260 262 263 258 255 258 261 263 266 266 263 258 248 242 252 266 271 275 275 268 259
277 274 274 275 278 282 284 285 286 285 283 282 278 276 274 271 266 259 257 261 265 265 265 266 266 266 266 266 266 267 268 264 255 246 250 266 274 275 276 273 266 256
274 271 270 271 273 276 279 281 282 282 281 279 276 273 269 266 263 256 251 252 255 259 260 260 263 265 267 269 269 267 266 260 249 249 261 275 278 278 276 272 263 251
272 268 267 268 269 271 273 276 278 279 279 277 275 275 272 268 262 255 250 248 250 255 258 260 261 262 264 269 270 267 262 254 249 255 268 277 279 279 276 270 260 246
268 265 264 264 267 268 269 272 274 276 278 277 275 272 268 264 260 256 254 250 250 254 257 260 261 261 262 267 268 265 259 255 256 263 272 280 281 278 275 270 260 248
260 259 259 261 263 265 267 268 269 270 273 274 275 273 268 262 258 255 254 253 252 252 254 256 257 258 260 263 267 268 266 265 268 273 277 281 281 278 274 269 262 252
255 253 254 256 259 262 264 267 269 270 271 273 276 276 274 270 267 263 260 259 258 257 257 258 259 261 263 265 268 270 270 271 274 275 275 276 277 277 275 271 265 257
254 252 254 255 257 261 264 267 271 274 276 278 279 280 279 279 279 277 274 271 266 263 261 261 262 262 262 262 262 263 267 271 274 273 272 273 275 276 277 274 269 261